Theta_e
308 311 311 312 314 315 316 317 318 319 318 318 318 317 316 315 316 315 314 312 311 311 312 314 316 316 314 312 311 313 315 312 315 308 306 306 306 306 306 306 306 306 307
304 304 304 305 307 310 313 312 313 314 315 315 315 314 314 315 315 312 311 310 310 311 311 313 314 312 309 308 311 310 310 307 307 310 304 303 303 304 304 304 305 306 306
303 302 302 304 305 305 305 308 311 312 312 312 312 313 313 313 311 310 309 309 308 310 311 313 310 306 306 309 307 306 305 305 305 305 303 302 302 302 301 301 301 301 303
301 301 302 302 304 304 304 306 309 309 310 311 311 312 312 310 309 308 308 307 307 310 311 308 304 304 305 305 304 304 304 303 303 302 302 302 301 301 300 300 300 302 303
299 300 301 301 301 302 303 304 304 308 309 310 311 310 308 308 306 306 306 307 308 309 306 304 305 304 303 303 303 303 303 302 302 301 301 301 301 301 301 302 302 302 302
298 298 299 300 300 302 303 306 306 308 308 308 308 306 305 304 305 306 307 308 307 310 305 305 303 303 302 301 301 301 302 302 301 301 301 301 301 302 303 303 302 301 299
297 298 298 298 300 301 303 303 302 303 303 304 304 304 304 306 306 308 307 308 309 308 305 305 303 301 301 301 301 301 301 302 302 301 301 302 302 303 303 303 301 300 299
297 297 298 299 300 301 300 301 302 304 304 303 304 304 306 307 307 307 307 309 309 307 306 306 302 302 301 301 300 300 301 301 301 301 302 302 302 302 302 303 302 301 300
297 297 298 299 299 301 301 302 302 302 303 304 304 305 305 305 306 306 307 304 304 304 304 304 303 303 303 302 302 302 301 301 302 302 302 302 301 301 300 300 301 301 300
298 298 298 299 299 300 301 301 301 301 301 302 301 301 301 302 303 302 302 303 302 302 303 301 302 303 304 304 303 303 303 303 302 302 302 303 302 301 300 300 300 300 299
298 298 298 298 299 300 299 301 301 300 299 298 299 299 300 302 302 302 303 302 302 301 301 302 301 301 301 300 300 300 301 301 303 302 302 303 303 303 302 301 301 301 299
299 299 299 300 301 301 300 299 299 298 298 298 298 299 300 300 301 302 301 302 302 301 301 300 299 299 300 299 300 301 302 301 301 302 302 302 302 302 302 303 301 301 299
299 299 299 299 299 299 298 298 298 298 298 298 298 298 298 299 300 299 299 300 299 299 299 299 300 300 299 299 300 300 302 303 302 303 302 300 301 301 302 302 302 301 300
297 297 297 297 298 298 298 297 297 297 297 297 298 298 299 299 299 299 300 300 300 301 301 301 300 298 298 298 298 299 301 303 302 302 301 300 300 300 301 301 300 299 299
297 297 297 296 296 296 297 297 298 298 298 298 298 298 298 298 298 299 299 299 299 299 298 297 297 297 298 297 298 300 301 301 302 301 301 300 300 299 299 299 300 299 298
297 297 297 297 297 297 297 297 299 298 298 298 297 296 296 296 297 298 298 298 298 297 297 297 297 296 296 297 297 299 299 300 300 300 300 300 299 299 299 299 299 299 298
297 297 297 296 296 297 298 298 298 297 296 296 296 296 296 297 297 297 297 297 297 297 296 296 296 296 297 297 298 298 298 298 298 298 298 299 298 298 298 298 298 298 297
298 299 298 297 296 296 295 295 295 295 295 296 296 297 297 297 297 297 297 296 295 295 295 295 295 296 297 298 298 298 297 297 298 298 298 298 298 298 297 297 297 297 297
300 298 296 296 296 296 296 297 297 297 297 297 297 297 297 297 295 294 294 292 292 293 294 294 294 295 295 296 297 297 297 297 297 297 298 297 297 297 296 296 296 297 297
297 296 296 297 297 297 297 297 297 296 297 297 296 296 297 296 294 293 292 291 291 291 292 292 292 292 292 293 294 296 296 296 296 296 297 297 296 296 295 295 295 296 297
298 297 298 298 298 297 296 296 296 296 296 296 295 295 295 294 293 292 292 291 291 291 291 290 290 291 291 292 292 293 296 297 296 296 296 297 296 295 295 295 295 296 296
299 298 297 297 297 296 297 297 297 296 296 296 296 295 294 293 291 290 290 290 291 291 291 290 290 291 291 291 292 292 293 295 296 296 296 296 296 295 295 294 295 296 296
300 299 298 297 297 297 297 297 297 297 297 296 296 295 294 294 293 292 290 289 289 290 290 290 291 292 292 292 291 291 292 292 293 296 297 296 295 295 295 294 295 295 296
299 299 299 298 298 298 297 297 297 297 296 296 295 295 294 293 292 292 291 291 289 289 290 290 291 292 293 293 292 291 291 292 292 293 296 296 294 294 294 295 295 296 296
299 299 299 298 298 298 297 297 297 297 296 296 295 295 295 294 293 292 292 292 292 292 292 292 292 292 292 293 293 293 292 291 291 292 294 295 293 294 295 295 295 296 296
299 299 298 298 298 298 298 297 297 297 297 296 296 295 294 294 294 293 294 294 294 294 294 294 293 293 293 293 293 292 291 291 291 292 292 293 293 295 295 295 295 296 297
Wind_Speed
18 17 17 17 18 17 12 13 14 12 11 9 8 9 10 10 12 12 12 14 16 18 20 21 23 21 21 22 19 15 8 7 4 1 5 4 2 4 5 6 7 9 10
20 22 24 25 23 20 19 18 15 16 16 14 14 13 13 11 8 6 9 11 16 18 20 20 23 20 18 14 12 5 5 7 4 2 3 7 6 7 7 7 8 11 13
25 27 24 22 20 24 28 24 20 18 18 16 13 12 8 6 6 7 10 15 18 19 18 18 13 12 10 7 7 7 6 6 6 3 3 5 7 7 8 8 8 8 5
27 26 26 23 20 21 22 24 26 23 18 19 16 15 9 9 13 14 13 16 18 17 13 4 4 7 8 8 5 7 8 10 11 11 8 5 5 6 7 7 7 8 9
26 25 26 25 23 22 23 23 23 21 17 21 10 8 10 13 18 20 18 18 16 13 3 10 8 9 15 10 8 10 10 12 12 11 9 5 6 6 7 8 5 6 7
23 23 22 23 23 20 18 17 15 9 4 7 10 13 18 21 21 18 15 15 16 8 15 12 7 10 11 11 11 12 12 13 13 10 6 4 5 5 6 6 5 4 3
23 21 19 20 18 19 12 12 17 13 13 15 14 15 17 17 16 13 14 14 14 17 20 13 9 13 9 9 9 12 13 13 10 6 6 4 5 7 7 4 2 5 5
21 20 16 15 15 13 12 9 9 6 8 12 14 14 13 12 12 13 11 6 15 16 15 11 15 13 10 12 14 13 11 8 6 6 6 8 7 7 6 5 3 1 6
17 15 13 13 14 9 9 6 5 7 7 8 11 10 7 10 10 2 11 23 26 25 22 18 11 7 5 6 7 8 8 6 4 3 5 7 8 9 9 8 6 4 3
11 11 10 9 10 8 7 8 9 8 9 8 9 10 10 14 16 20 24 29 31 27 22 16 13 5 3 3 3 1 1 2 3 3 5 6 7 8 10 10 8 8 6
13 10 9 10 10 7 6 8 7 10 16 18 20 21 24 24 24 25 26 28 27 21 16 8 10 11 5 5 7 10 8 5 4 2 4 5 5 5 6 7 9 9 8
15 12 11 12 13 14 14 17 20 21 22 22 23 24 25 21 19 18 20 17 11 17 21 12 3 7 10 16 17 14 8 7 9 5 4 5 8 8 7 4 6 6 6
20 20 20 20 20 18 19 18 19 20 20 19 21 23 26 24 19 19 14 10 11 8 1 6 10 13 18 22 22 22 17 7 13 9 5 10 10 8 4 3 4 6 7
19 19 19 20 21 20 21 21 20 20 20 20 22 19 15 14 12 9 9 6 5 6 9 9 13 18 22 23 26 26 20 13 18 14 11 9 9 11 9 7 9 5 9
20 20 21 21 21 21 22 20 22 25 23 20 18 14 9 9 7 8 9 11 13 16 22 23 24 23 23 24 27 26 24 21 15 10 6 9 11 11 14 9 8 8 8
20 21 22 23 24 23 21 23 25 19 16 13 11 11 12 11 10 12 18 20 20 22 24 23 22 21 22 21 24 24 24 20 17 15 13 12 12 13 11 12 10 10 9
23 24 23 22 21 21 21 18 12 11 12 14 13 13 13 19 20 21 25 24 26 25 26 22 23 25 25 21 22 22 21 19 17 17 16 14 13 13 10 11 12 12 11
16 16 17 17 18 18 17 16 15 16 17 19 21 23 24 25 24 24 23 24 28 27 27 25 26 26 25 25 23 23 22 20 19 18 18 16 14 10 11 12 12 10 9
10 15 19 20 19 19 18 18 17 18 21 26 27 27 27 28 28 27 26 27 25 24 24 25 24 24 23 20 18 19 19 20 19 18 17 19 15 12 12 13 12 10 8
15 20 20 16 13 11 11 14 16 21 25 29 28 26 25 25 28 27 26 26 27 25 22 23 22 23 22 21 18 15 14 16 18 19 16 15 16 12 11 12 12 12 12
13 12 6 3 10 14 18 22 27 29 27 27 26 24 23 25 25 24 24 23 23 23 23 23 23 23 22 23 21 20 15 14 14 18 18 14 17 14 13 12 12 12 12
13 14 16 16 16 17 19 23 25 25 25 24 24 23 24 26 26 24 22 21 19 18 18 20 22 22 21 21 21 20 21 17 14 16 20 19 15 15 15 14 12 14 15
10 11 12 12 11 9 10 19 22 22 22 22 21 22 22 22 21 21 21 20 19 18 17 18 19 20 21 19 20 20 19 20 20 15 14 21 19 15 15 14 13 13 13
9 11 11 13 19 22 21 21 20 20 19 19 19 19 20 20 19 18 17 16 16 15 14 15 15 17 20 20 17 20 20 17 18 17 13 18 21 15 15 14 14 15 14
15 16 16 18 19 19 18 18 18 18 17 16 16 17 17 16 15 14 14 15 16 16 16 15 15 14 16 18 19 18 16 18 16 15 17 17 21 16 16 16 14 14 15
18 18 19 18 18 17 16 17 17 16 15 14 13 14 14 14 14 13 14 16 18 19 20 21 21 20 19 18 15 16 18 18 17 14 18 19 22 19 17 18 19 19 19
Wind_Direction
352 350 346 339 336 331 320 298 277 267 265 264 268 274 271 267 279 294 309 320 324 328 332 327 311 310 309 316 317 316 314 338 299 183 33 8 9 68 64 56 53 55 50
329 325 322 315 315 320 317 311 303 288 279 267 267 279 290 277 263 295 322 319 322 322 322 323 309 305 312 325 330 336 352 349 322 294 49 48 68 63 56 54 62 80 77
323 326 321 314 302 294 294 298 298 287 285 282 275 269 259 249 254 287 303 310 315 311 319 322 310 321 337 13 346 351 3 23 32 60 82 60 55 36 36 39 44 46 49
318 311 311 311 308 304 299 299 290 283 291 272 265 261 258 290 299 310 311 311 309 313 315 331 27 25 31 27 23 46 55 67 75 82 80 64 41 34 34 25 18 27 29
310 309 305 303 304 304 303 304 293 292 284 274 272 298 304 309 303 306 307 302 304 320 155 107 84 63 59 56 63 73 78 83 82 78 72 57 44 27 0 339 322 329 18
309 306 306 306 306 303 306 331 303 286 306 297 292 305 306 302 303 298 292 292 297 282 155 125 100 70 70 72 74 77 80 95 94 84 72 41 360 333 354 352 2 359 340
308 303 303 310 306 307 302 328 330 333 310 296 304 306 303 292 297 296 299 298 293 176 150 132 90 81 80 82 83 85 90 91 87 74 72 40 356 341 330 309 47 58 40
307 308 310 315 322 320 323 317 310 310 310 316 317 311 307 295 297 300 293 262 154 159 165 158 107 95 85 80 78 75 77 86 84 76 66 45 26 3 350 322 225 338 340
300 307 316 317 321 334 349 359 351 343 351 6 359 347 324 325 327 299 140 120 109 100 107 119 121 137 128 91 75 73 70 72 67 47 43 41 46 50 59 70 52 347 322
310 325 336 350 10 12 17 16 3 352 353 8 46 61 65 79 106 110 109 106 98 94 95 96 103 89 270 260 276 357 322 356 340 48 65 46 39 36 41 50 51 48 8
18 14 0 351 351 341 347 351 3 81 84 80 79 80 82 83 87 95 95 94 91 85 78 93 101 102 68 331 307 293 269 271 230 251 330 348 9 10 11 32 47 58 51
34 34 25 27 53 68 85 86 87 83 79 74 77 76 82 80 82 79 85 90 115 133 131 122 53 1 19 58 61 61 54 217 200 167 13 22 30 19 2 355 34 57 63
59 61 64 68 72 80 86 88 82 84 82 79 77 80 92 99 98 103 85 86 105 117 58 351 359 43 63 63 61 56 57 79 161 146 79 43 31 25 30 42 51 21 40
57 60 66 68 72 75 81 82 83 86 85 87 101 107 104 72 78 72 59 46 20 7 4 21 75 77 68 60 56 55 58 87 124 126 77 51 34 31 49 47 52 44 30
58 56 56 59 64 75 80 82 96 103 100 100 96 89 54 23 12 27 37 38 62 86 99 85 75 67 63 57 54 61 67 81 91 82 81 45 37 29 36 39 43 31 38
63 62 61 64 71 73 74 94 103 95 83 69 52 43 46 44 51 68 83 91 100 94 85 77 71 66 59 58 57 66 61 62 63 54 51 38 32 25 25 29 33 30 15
88 82 79 79 86 93 99 103 99 75 67 64 55 45 49 75 83 87 86 87 87 88 82 77 66 58 58 63 59 55 51 53 56 51 49 44 35 31 25 18 20 17 27
74 66 64 79 90 90 88 86 81 74 69 74 78 80 81 84 85 89 89 88 78 79 77 70 64 62 64 70 61 52 47 42 42 40 42 33 29 21 20 21 18 18 27
61 84 101 97 90 83 77 68 63 66 64 76 85 83 85 84 86 81 78 75 72 69 71 70 67 66 62 63 62 60 47 38 33 31 28 27 28 30 27 27 23 20 19
115 123 115 103 88 70 58 62 79 81 83 88 85 84 85 86 84 81 77 73 71 68 71 70 68 65 60 56 52 53 48 43 38 30 26 25 27 30 28 26 27 22 29
154 155 171 164 110 99 88 93 99 95 90 87 85 85 86 86 83 82 79 75 75 74 70 67 64 60 55 52 51 48 43 44 34 31 30 26 28 34 30 32 36 38 29
117 121 120 118 115 108 95 99 103 100 97 94 92 90 85 83 82 80 79 78 77 76 72 69 62 55 50 48 45 44 44 40 33 33 31 34 34 31 33 33 36 37 35
146 134 131 129 123 111 114 109 109 107 103 100 98 96 94 92 87 82 78 77 78 79 76 68 62 56 51 50 45 39 40 40 36 29 31 29 33 35 32 32 36 34 29
135 143 138 132 127 122 114 113 112 109 106 104 103 99 96 94 91 88 83 79 76 74 69 61 56 52 49 47 47 42 40 41 34 33 27 23 27 33 38 42 41 42 39
125 124 124 123 123 122 120 118 117 115 112 109 106 105 105 103 95 87 81 79 77 71 64 57 53 49 45 44 45 40 36 37 29 35 39 28 28 43 47 43 42 38 38
126 124 124 125 125 124 122 122 122 123 120 118 122 124 118 108 97 92 87 85 81 75 68 63 57 52 46 39 34 37 39 35 36 42 42 36 34 45 49 47 53 55 54